Time,TemperatureF,DewpointF,PressureIn,WindDirection,WindDirectionDegrees,WindSpeedMPH,WindSpeedGustMPH,Humidity,HourlyPrecipIn,Conditions,Clouds,dailyrainin,SoftwareType,DateUTC
2013-06-17 00:02:00,64.6,53.8,29.16,North,0,0.0,0.0,68,0.00,,,0.00,WUHU216HW,2013-06-17 05:02:00,
2013-06-17 00:07:00,64.4,54.1,29.17,North,0,0.0,0.0,69,0.00,,,0.00,WUHU216HW,2013-06-17 05:07:00,
2013-06-17 00:12:00,64.4,54.1,29.17,North,0,0.0,0.0,69,0.00,,,0.00,WUHU216HW,2013-06-17 05:12:00,
2013-06-17 00:17:00,64.4,54.1,29.17,North,0,0.0,0.0,69,0.00,,,0.00,WUHU216HW,2013-06-17 05:17:00,
2013-06-17 00:22:00,64.4,54.1,29.17,North,0,0.0,0.0,69,0.00,,,0.00,WUHU216HW,2013-06-17 05:22:00,
2013-06-17 00:27:00,64.4,54.1,29.17,North,0,0.0,0.0,69,0.00,,,0.00,WUHU216HW,2013-06-17 05:27:00,
2013-06-17 00:32:00,64.4,54.5,29.17,North,0,0.0,0.0,70,0.00,,,0.00,WUHU216HW,2013-06-17 05:32:00,
2013-06-17 00:37:00,64.6,54.7,29.17,North,0,0.0,0.0,70,0.00,,,0.00,WUHU216HW,2013-06-17 05:37:00,
2013-06-17 00:42:00,64.6,54.7,29.17,North,0,0.0,0.0,70,0.00,,,0.00,WUHU216HW,2013-06-17 05:42:00,
2013-06-17 00:47:00,64.6,54.7,29.17,North,0,0.0,0.0,70,0.00,,,0.00,WUHU216HW,2013-06-17 05:47:00,
2013-06-17 00:52:00,64.6,55.1,29.18,North,0,0.0,0.0,71,0.00,,,0.00,WUHU216HW,2013-06-17 05:52:00,
2013-06-17 00:57:00,64.6,55.8,29.18,North,0,0.0,0.0,73,0.00,,,0.00,WUHU216HW,2013-06-17 05:57:00,
2013-06-17 01:02:00,64.6,55.5,29.18,North,0,0.0,0.0,72,0.00,,,0.00,WUHU216HW,2013-06-17 06:02:00,
2013-06-17 01:07:00,64.8,55.3,29.18,North,0,0.0,0.0,71,0.00,,,0.00,WUHU216HW,2013-06-17 06:07:00,
2013-06-17 01:12:00,64.6,55.1,29.18,North,0,0.0,0.0,71,0.00,,,0.00,WUHU216HW,2013-06-17 06:12:00,
2013-06-17 01:17:00,64.6,55.1,29.17,North,0,0.0,0.0,71,0.00,,,0.00,WUHU216HW,2013-06-17 06:17:00,
2013-06-17 01:22:00,64.6,55.1,29.18,North,0,0.0,0.0,71,0.00,,,0.00,WUHU216HW,2013-06-17 06:22:00,
2013-06-17 01:27:00,64.4,55.3,29.17,North,0,0.0,0.0,72,0.00,,,0.00,WUHU216HW,2013-06-17 06:27:00,
2013-06-17 01:32:00,64.4,55.3,29.18,North,0,0.0,0.0,72,0.00,,,0.00,WUHU216HW,2013-06-17 06:32:00,
2013-06-17 01:37:00,64.3,55.1,29.18,North,0,0.0,0.0,72,0.00,,,0.00,WUHU216HW,2013-06-17 06:37:00,
2013-06-17 01:42:00,64.1,55.3,29.18,North,0,0.0,0.0,73,0.00,,,0.00,WUHU216HW,2013-06-17 06:42:00,
2013-06-17 01:47:00,64.1,55.3,29.18,North,0,0.0,0.0,73,0.00,,,0.00,WUHU216HW,2013-06-17 06:47:00,
2013-06-17 01:52:00,63.9,55.4,29.18,North,0,0.0,0.0,74,0.00,,,0.00,WUHU216HW,2013-06-17 06:52:00,
2013-06-17 01:57:00,63.9,55.4,29.18,North,0,0.0,0.0,74,0.00,,,0.00,WUHU216HW,2013-06-17 06:57:00,
2013-06-17 02:02:00,63.7,55.3,29.17,North,0,0.0,0.0,74,0.00,,,0.00,WUHU216HW,2013-06-17 07:02:00,
2013-06-17 02:07:00,63.7,55.3,29.18,North,0,0.0,0.0,74,0.00,,,0.00,WUHU216HW,2013-06-17 07:07:00,
2013-06-17 02:12:00,63.7,55.3,29.18,North,0,0.0,0.0,74,0.00,,,0.00,WUHU216HW,2013-06-17 07:12:00,
2013-06-17 02:17:00,63.5,55.1,29.18,North,0,0.0,0.0,74,0.00,,,0.00,WUHU216HW,2013-06-17 07:17:00,
2013-06-17 02:22:00,63.4,54.9,29.18,North,0,0.0,0.0,74,0.00,,,0.00,WUHU216HW,2013-06-17 07:22:00,
2013-06-17 02:27:00,63.4,54.9,29.18,North,0,0.0,0.0,74,0.00,,,0.00,WUHU216HW,2013-06-17 07:27:00,
2013-06-17 02:32:00,63.2,55.1,29.18,North,0,0.0,0.0,75,0.00,,,0.00,WUHU216HW,2013-06-17 07:32:00,
2013-06-17 02:37:00,63.0,54.9,29.18,North,0,0.0,0.0,75,0.00,,,0.00,WUHU216HW,2013-06-17 07:37:00,
2013-06-17 02:42:00,63.0,54.9,29.18,North,0,0.0,0.0,75,0.00,,,0.00,WUHU216HW,2013-06-17 07:42:00,
2013-06-17 02:47:00,62.8,54.7,29.18,North,0,0.0,0.0,75,0.00,,,0.00,WUHU216HW,2013-06-17 07:47:00,
2013-06-17 02:52:00,62.6,54.2,29.18,North,0,0.0,0.0,74,0.00,,,0.00,WUHU216HW,2013-06-17 07:52:00,
2013-06-17 02:57:00,62.5,54.4,29.18,North,0,0.0,0.0,75,0.00,,,0.00,WUHU216HW,2013-06-17 07:57:00,
2013-06-17 03:02:00,62.3,54.2,29.18,North,0,0.0,0.0,75,0.00,,,0.00,WUHU216HW,2013-06-17 08:02:00,
2013-06-17 03:07:00,62.1,54.1,29.18,North,0,0.0,0.0,75,0.00,,,0.00,WUHU216HW,2013-06-17 08:07:00,
2013-06-17 03:12:00,61.9,53.9,29.18,North,0,0.0,0.0,75,0.00,,,0.00,WUHU216HW,2013-06-17 08:12:00,
2013-06-17 03:17:00,61.9,54.3,29.18,North,0,0.0,0.0,76,0.00,,,0.00,WUHU216HW,2013-06-17 08:17:00,
2013-06-17 03:22:00,61.6,53.9,29.18,North,0,0.0,0.0,76,0.00,,,0.00,WUHU216HW,2013-06-17 08:22:00,
2013-06-17 03:27:00,61.6,53.9,29.18,North,0,0.0,0.0,76,0.00,,,0.00,WUHU216HW,2013-06-17 08:27:00,
2013-06-17 03:32:00,61.4,53.7,29.18,North,0,0.0,0.0,76,0.00,,,0.00,WUHU216HW,2013-06-17 08:32:00,
2013-06-17 03:37:00,61.2,53.7,29.18,North,0,0.0,0.0,76,0.00,,,0.00,WUHU216HW,2013-06-17 08:37:00,
2013-06-17 03:42:00,61.2,54.0,29.18,North,0,0.0,0.0,77,0.00,,,0.00,WUHU216HW,2013-06-17 08:42:00,
2013-06-17 03:47:00,61.0,53.8,29.19,North,0,0.0,0.0,77,0.00,,,0.00,WUHU216HW,2013-06-17 08:47:00,
2013-06-17 03:52:00,60.8,53.6,29.19,North,0,0.0,0.0,77,0.00,,,0.00,WUHU216HW,2013-06-17 08:52:00,
2013-06-17 03:57:00,60.8,53.6,29.19,North,0,0.0,0.0,77,0.00,,,0.00,WUHU216HW,2013-06-17 08:57:00,
2013-06-17 04:02:00,60.8,54.0,29.19,North,0,0.0,0.0,78,0.00,,,0.00,WUHU216HW,2013-06-17 09:02:00,
2013-06-17 04:07:00,60.8,54.0,29.19,North,0,0.0,0.0,78,0.00,,,0.00,WUHU216HW,2013-06-17 09:07:00,
2013-06-17 04:12:00,60.8,54.0,29.19,North,0,0.0,0.0,78,0.00,,,0.00,WUHU216HW,2013-06-17 09:12:00,
2013-06-17 04:17:00,60.7,53.8,29.19,North,0,0.0,0.0,78,0.00,,,0.00,WUHU216HW,2013-06-17 09:17:00,
2013-06-17 04:22:00,60.7,54.2,29.19,North,0,0.0,0.0,79,0.00,,,0.00,WUHU216HW,2013-06-17 09:22:00,
2013-06-17 04:27:00,60.7,54.2,29.19,North,0,0.0,0.0,79,0.00,,,0.00,WUHU216HW,2013-06-17 09:27:00,
2013-06-17 04:32:00,60.5,54.0,29.19,North,0,0.0,0.0,79,0.00,,,0.00,WUHU216HW,2013-06-17 09:32:00,
2013-06-17 04:37:00,60.5,54.0,29.19,North,0,0.0,0.0,79,0.00,,,0.00,WUHU216HW,2013-06-17 09:37:00,
2013-06-17 04:42:00,60.5,54.0,29.19,North,0,0.0,0.0,79,0.00,,,0.00,WUHU216HW,2013-06-17 09:42:00,
2013-06-17 04:47:00,60.5,54.0,29.19,North,0,0.0,0.0,79,0.00,,,0.00,WUHU216HW,2013-06-17 09:47:00,
2013-06-17 04:52:00,60.3,53.8,29.19,North,0,0.0,0.0,79,0.00,,,0.00,WUHU216HW,2013-06-17 09:52:00,
2013-06-17 04:57:00,60.1,53.6,29.19,North,0,0.0,0.0,79,0.00,,,0.00,WUHU216HW,2013-06-17 09:57:00,
2013-06-17 05:02:00,60.1,53.6,29.19,North,0,0.0,0.0,79,0.00,,,0.00,WUHU216HW,2013-06-17 10:02:00,
2013-06-17 05:07:00,59.9,53.5,29.19,North,0,0.0,0.0,79,0.00,,,0.00,WUHU216HW,2013-06-17 10:07:00,
2013-06-17 05:12:00,59.8,53.3,29.19,North,0,0.0,0.0,79,0.00,,,0.00,WUHU216HW,2013-06-17 10:12:00,
2013-06-17 05:17:00,59.6,53.1,29.19,North,0,0.0,0.0,79,0.00,,,0.00,WUHU216HW,2013-06-17 10:17:00,
2013-06-17 05:22:00,59.6,53.1,29.19,North,0,0.0,0.0,79,0.00,,,0.00,WUHU216HW,2013-06-17 10:22:00,
2013-06-17 05:27:00,59.4,53.3,29.19,North,0,0.0,0.0,80,0.00,,,0.00,WUHU216HW,2013-06-17 10:27:00,
2013-06-17 05:32:00,59.6,53.5,29.19,North,0,0.0,0.0,80,0.00,,,0.00,WUHU216HW,2013-06-17 10:32:00,
2013-06-17 05:37:00,59.6,53.5,29.19,North,0,0.0,0.0,80,0.00,,,0.00,WUHU216HW,2013-06-17 10:37:00,
2013-06-17 05:42:00,59.9,53.8,29.19,North,0,0.0,0.0,80,0.00,,,0.00,WUHU216HW,2013-06-17 10:42:00,
2013-06-17 05:47:00,61.7,55.9,29.19,North,0,0.0,0.0,81,0.00,,,0.00,WUHU216HW,2013-06-17 10:47:00,
2013-06-17 05:52:00,65.0,58.7,29.19,North,0,0.0,0.0,80,0.00,,,0.00,WUHU216HW,2013-06-17 10:52:00,
2013-06-17 05:57:00,68.0,59.9,29.20,North,0,0.0,0.0,75,0.00,,,0.00,WUHU216HW,2013-06-17 10:57:00,
2013-06-17 06:02:00,70.6,60.7,29.20,North,0,0.0,0.0,71,0.00,,,0.00,WUHU216HW,2013-06-17 11:02:00,
2013-06-17 06:08:00,73.4,62.3,29.20,North,0,0.0,0.0,68,0.00,,,0.00,WUHU216HW,2013-06-17 11:08:00,
2013-06-17 06:13:00,76.0,62.9,29.20,North,0,0.0,0.0,64,0.00,,,0.00,WUHU216HW,2013-06-17 11:13:00,
2013-06-17 06:18:00,78.1,63.2,29.20,North,0,0.0,0.0,60,0.00,,,0.00,WUHU216HW,2013-06-17 11:18:00,
2013-06-17 06:23:00,80.1,63.5,29.20,North,0,0.0,0.0,57,0.00,,,0.00,WUHU216HW,2013-06-17 11:23:00,
2013-06-17 06:28:00,82.1,63.7,29.20,North,0,0.0,0.0,54,0.00,,,0.00,WUHU216HW,2013-06-17 11:28:00,
2013-06-17 06:33:00,83.9,64.5,29.20,North,0,0.0,0.0,52,0.00,,,0.00,WUHU216HW,2013-06-17 11:33:00,
2013-06-17 06:38:00,85.5,64.9,29.20,North,0,0.0,0.0,50,0.00,,,0.00,WUHU216HW,2013-06-17 11:38:00,
2013-06-17 06:43:00,87.1,65.1,29.20,North,0,0.0,0.0,48,0.00,,,0.00,WUHU216HW,2013-06-17 11:43:00,
2013-06-17 06:48:00,88.7,65.3,29.21,North,0,0.0,0.0,46,0.00,,,0.00,WUHU216HW,2013-06-17 11:48:00,
2013-06-17 06:53:00,90.0,65.0,29.21,North,0,0.0,0.0,44,0.00,,,0.00,WUHU216HW,2013-06-17 11:53:00,
2013-06-17 06:58:00,91.3,65.5,29.21,North,0,0.0,0.0,43,0.00,,,0.00,WUHU216HW,2013-06-17 11:58:00,
2013-06-17 07:03:00,92.5,65.3,29.21,North,0,0.0,0.0,41,0.00,,,0.00,WUHU216HW,2013-06-17 12:03:00,
2013-06-17 07:08:00,93.6,65.7,29.21,North,0,0.0,0.0,40,0.00,,,0.00,WUHU216HW,2013-06-17 12:08:00,
2013-06-17 07:13:00,94.3,65.5,29.21,North,0,0.0,0.0,39,0.00,,,0.00,WUHU216HW,2013-06-17 12:13:00,
2013-06-17 07:18:00,94.9,65.2,29.21,North,0,0.0,0.0,38,0.00,,,0.00,WUHU216HW,2013-06-17 12:18:00,
2013-06-17 07:23:00,95.6,64.2,29.21,North,0,0.0,0.0,36,0.00,,,0.00,WUHU216HW,2013-06-17 12:23:00,
2013-06-17 07:28:00,96.3,64.8,29.21,North,0,0.0,0.0,36,0.00,,,0.00,WUHU216HW,2013-06-17 12:28:00,
2013-06-17 07:33:00,96.8,64.4,29.21,North,0,0.0,0.0,35,0.00,,,0.00,WUHU216HW,2013-06-17 12:33:00,
2013-06-17 07:38:00,96.8,63.6,29.21,North,0,0.0,0.0,34,0.00,,,0.00,WUHU216HW,2013-06-17 12:38:00,
2013-06-17 07:43:00,96.8,63.6,29.22,North,0,0.0,0.0,34,0.00,,,0.00,WUHU216HW,2013-06-17 12:43:00,
2013-06-17 07:48:00,97.7,64.5,29.22,North,0,0.0,0.0,34,0.00,,,0.00,WUHU216HW,2013-06-17 12:48:00,
2013-06-17 07:53:00,98.5,64.3,29.22,North,0,0.0,0.0,33,0.00,,,0.00,WUHU216HW,2013-06-17 12:53:00,
2013-06-17 07:58:00,99.4,65.1,29.22,North,0,0.0,0.0,33,0.00,,,0.00,WUHU216HW,2013-06-17 12:58:00,
2013-06-17 08:03:00,100.3,65.1,29.22,North,0,0.0,0.0,32,0.00,,,0.00,WUHU216HW,2013-06-17 13:03:00,
2013-06-17 08:08:00,100.4,64.4,29.22,North,0,0.0,0.0,31,0.00,,,0.00,WUHU216HW,2013-06-17 13:08:00,
2013-06-17 08:13:00,100.8,64.6,29.23,North,0,0.0,0.0,31,0.00,,,0.00,WUHU216HW,2013-06-17 13:13:00,
2013-06-17 08:18:00,100.8,64.6,29.23,North,0,0.0,0.0,31,0.00,,,0.00,WUHU216HW,2013-06-17 13:18:00,
2013-06-17 08:23:00,101.2,64.1,29.23,North,0,0.0,0.0,30,0.00,,,0.00,WUHU216HW,2013-06-17 13:23:00,
2013-06-17 08:28:00,101.3,64.3,29.23,North,0,0.0,0.0,30,0.00,,,0.00,WUHU216HW,2013-06-17 13:28:00,
2013-06-17 08:33:00,101.2,64.1,29.23,North,0,0.0,0.0,30,0.00,,,0.00,WUHU216HW,2013-06-17 13:33:00,
2013-06-17 08:38:00,99.4,62.6,29.23,North,0,0.0,0.0,30,0.00,,,0.00,WUHU216HW,2013-06-17 13:38:00,
2013-06-17 08:43:00,96.5,60.9,29.23,North,0,0.0,0.0,31,0.00,,,0.00,WUHU216HW,2013-06-17 13:43:00,
2013-06-17 08:48:00,93.2,59.7,29.23,North,0,0.0,0.0,33,0.00,,,0.00,WUHU216HW,2013-06-17 13:48:00,
2013-06-17 08:53:00,91.4,59.8,29.23,North,0,0.0,0.0,35,0.00,,,0.00,WUHU216HW,2013-06-17 13:53:00,
2013-06-17 08:58:00,90.0,59.2,29.23,North,0,0.0,0.0,36,0.00,,,0.00,WUHU216HW,2013-06-17 13:58:00,
2013-06-17 09:03:00,88.6,58.1,29.23,North,0,0.0,0.0,36,0.00,,,0.00,WUHU216HW,2013-06-17 14:03:00,
2013-06-17 09:08:00,87.7,58.9,29.23,North,0,0.0,0.0,38,0.00,,,0.00,WUHU216HW,2013-06-17 14:08:00,
2013-06-17 09:13:00,86.6,57.2,29.23,North,0,0.0,0.0,37,0.00,,,0.00,WUHU216HW,2013-06-17 14:13:00,
2013-06-17 09:18:00,85.7,57.2,29.23,North,0,0.0,0.0,38,0.00,,,0.00,WUHU216HW,2013-06-17 14:18:00,
2013-06-17 09:23:00,85.0,56.5,29.23,North,0,0.0,0.0,38,0.00,,,0.00,WUHU216HW,2013-06-17 14:23:00,
2013-06-17 09:28:00,83.5,56.0,29.23,North,0,0.0,0.0,39,0.00,,,0.00,WUHU216HW,2013-06-17 14:28:00,
2013-06-17 09:33:00,82.6,56.0,29.23,North,0,0.0,0.0,40,0.00,,,0.00,WUHU216HW,2013-06-17 14:33:00,
2013-06-17 09:38:00,82.3,56.3,29.23,North,0,0.0,0.0,41,0.00,,,0.00,WUHU216HW,2013-06-17 14:38:00,
2013-06-17 09:43:00,82.3,56.9,29.23,North,0,0.0,0.0,42,0.00,,,0.00,WUHU216HW,2013-06-17 14:43:00,
2013-06-17 09:48:00,82.1,56.7,29.23,North,0,0.0,0.0,42,0.00,,,0.00,WUHU216HW,2013-06-17 14:48:00,
2013-06-17 09:53:00,82.3,56.9,29.23,North,0,0.0,0.0,42,0.00,,,0.00,WUHU216HW,2013-06-17 14:53:00,
2013-06-17 09:58:00,82.1,56.7,29.23,North,0,0.0,0.0,42,0.00,,,0.00,WUHU216HW,2013-06-17 14:58:00,
2013-06-17 10:03:00,81.4,56.1,29.23,North,0,0.0,0.0,42,0.00,,,0.00,WUHU216HW,2013-06-17 15:03:00,
2013-06-17 10:08:00,81.0,56.3,29.23,North,0,0.0,0.0,43,0.00,,,0.00,WUHU216HW,2013-06-17 15:08:00,
2013-06-17 10:13:00,81.7,57.6,29.23,North,0,0.0,0.0,44,0.00,,,0.00,WUHU216HW,2013-06-17 15:13:00,
2013-06-17 10:18:00,82.3,57.5,29.23,North,0,0.0,0.0,43,0.00,,,0.00,WUHU216HW,2013-06-17 15:18:00,
2013-06-17 10:23:00,82.1,56.7,29.22,North,0,0.0,0.0,42,0.00,,,0.00,WUHU216HW,2013-06-17 15:23:00,
2013-06-17 10:28:00,81.5,56.8,29.23,North,0,0.0,0.0,43,0.00,,,0.00,WUHU216HW,2013-06-17 15:28:00,
2013-06-17 10:33:00,81.5,56.8,29.22,North,0,0.0,0.0,43,0.00,,,0.00,WUHU216HW,2013-06-17 15:33:00,
2013-06-17 10:38:00,81.0,56.3,29.23,North,0,0.0,0.0,43,0.00,,,0.00,WUHU216HW,2013-06-17 15:38:00,
2013-06-17 10:43:00,80.3,56.4,29.23,North,0,0.0,0.0,44,0.00,,,0.00,WUHU216HW,2013-06-17 15:43:00,
2013-06-17 10:48:00,79.9,56.0,29.23,North,0,0.0,0.0,44,0.00,,,0.00,WUHU216HW,2013-06-17 15:48:00,
2013-06-17 10:53:00,79.9,56.0,29.23,North,0,0.0,0.0,44,0.00,,,0.00,WUHU216HW,2013-06-17 15:53:00,
2013-06-17 11:00:00,80.3,56.4,29.23,North,0,0.0,0.0,44,0.00,,,0.00,WUHU216HW,2013-06-17 16:00:00,
2013-06-17 11:05:00,80.3,56.4,29.23,North,0,0.0,0.0,44,0.00,,,0.00,WUHU216HW,2013-06-17 16:05:00,
2013-06-17 11:10:00,80.3,56.4,29.23,North,0,0.0,0.0,44,0.00,,,0.00,WUHU216HW,2013-06-17 16:10:00,
2013-06-17 11:15:00,79.7,54.6,29.23,North,0,0.0,0.0,42,0.00,,,0.00,WUHU216HW,2013-06-17 16:15:00,
2013-06-17 11:20:00,79.2,55.4,29.23,North,0,0.0,0.0,44,0.00,,,0.00,WUHU216HW,2013-06-17 16:20:00,
2013-06-17 11:25:00,79.2,56.0,29.23,North,0,0.0,0.0,45,0.00,,,0.00,WUHU216HW,2013-06-17 16:25:00,
2013-06-17 11:30:00,79.6,55.6,29.23,North,0,0.0,0.0,44,0.00,,,0.00,WUHU216HW,2013-06-17 16:30:00,
2013-06-17 11:35:00,79.9,56.0,29.23,North,0,0.0,0.0,44,0.00,,,0.00,WUHU216HW,2013-06-17 16:35:00,
2013-06-17 11:40:00,80.6,56.6,29.24,North,0,0.0,0.0,44,0.00,,,0.00,WUHU216HW,2013-06-17 16:40:00,
2013-06-17 11:45:00,81.2,56.5,29.24,North,0,0.0,0.0,43,0.00,,,0.00,WUHU216HW,2013-06-17 16:45:00,
2013-06-17 11:50:00,81.4,56.1,29.24,North,0,0.0,0.0,42,0.00,,,0.00,WUHU216HW,2013-06-17 16:50:00,
2013-06-17 11:55:00,81.7,56.3,29.24,North,0,0.0,0.0,42,0.00,,,0.00,WUHU216HW,2013-06-17 16:55:00,
2013-06-17 12:00:00,81.7,56.3,29.24,North,0,0.0,0.0,42,0.00,,,0.00,WUHU216HW,2013-06-17 17:00:00,
2013-06-17 12:05:00,81.7,57.0,29.24,North,0,0.0,0.0,43,0.00,,,0.00,WUHU216HW,2013-06-17 17:05:00,
2013-06-17 12:10:00,82.1,56.7,29.24,North,0,0.0,0.0,42,0.00,,,0.00,WUHU216HW,2013-06-17 17:10:00,
2013-06-17 12:15:00,81.7,55.8,29.24,North,0,0.0,0.0,41,0.00,,,0.00,WUHU216HW,2013-06-17 17:15:00,
2013-06-17 12:20:00,81.4,55.4,29.24,North,0,0.0,0.0,41,0.00,,,0.00,WUHU216HW,2013-06-17 17:20:00,
2013-06-17 12:25:00,81.0,55.1,29.24,North,0,0.0,0.0,41,0.00,,,0.00,WUHU216HW,2013-06-17 17:25:00,
2013-06-17 12:30:00,80.6,55.5,29.24,North,0,0.0,0.0,42,0.00,,,0.00,WUHU216HW,2013-06-17 17:30:00,
2013-06-17 12:35:00,81.2,56.5,29.24,North,0,0.0,0.0,43,0.00,,,0.00,WUHU216HW,2013-06-17 17:35:00,
2013-06-17 12:40:00,81.7,55.8,29.24,North,0,0.0,0.0,41,0.00,,,0.00,WUHU216HW,2013-06-17 17:40:00,
2013-06-17 12:45:00,82.1,56.1,29.24,North,0,0.0,0.0,41,0.00,,,0.00,WUHU216HW,2013-06-17 17:45:00,
2013-06-17 12:50:00,82.4,56.4,29.24,North,0,0.0,0.0,41,0.00,,,0.00,WUHU216HW,2013-06-17 17:50:00,
2013-06-17 12:55:00,83.0,56.3,29.24,North,0,0.0,0.0,40,0.00,,,0.00,WUHU216HW,2013-06-17 17:55:00,
2013-06-17 13:00:00,83.7,57.0,29.24,North,0,0.0,0.0,40,0.00,,,0.00,WUHU216HW,2013-06-17 18:00:00,
2013-06-17 13:05:00,84.4,56.8,29.24,North,0,0.0,0.0,39,0.00,,,0.00,WUHU216HW,2013-06-17 18:05:00,
2013-06-17 13:10:00,84.4,56.8,29.24,North,0,0.0,0.0,39,0.00,,,0.00,WUHU216HW,2013-06-17 18:10:00,
2013-06-17 13:15:00,83.7,55.4,29.24,North,0,0.0,0.0,38,0.00,,,0.00,WUHU216HW,2013-06-17 18:15:00,
2013-06-17 13:20:00,83.5,56.0,29.24,North,0,0.0,0.0,39,0.00,,,0.00,WUHU216HW,2013-06-17 18:20:00,
2013-06-17 13:25:00,83.3,55.8,29.24,North,0,0.0,0.0,39,0.00,,,0.00,WUHU216HW,2013-06-17 18:25:00,
2013-06-17 13:30:00,83.0,55.5,29.24,North,0,0.0,0.0,39,0.00,,,0.00,WUHU216HW,2013-06-17 18:30:00,
2013-06-17 13:35:00,82.8,56.2,29.24,North,0,0.0,0.0,40,0.00,,,0.00,WUHU216HW,2013-06-17 18:35:00,
2013-06-17 13:40:00,82.3,55.6,29.24,North,0,0.0,0.0,40,0.00,,,0.00,WUHU216HW,2013-06-17 18:40:00,
2013-06-17 13:45:00,81.9,55.4,29.24,North,0,0.0,0.0,40,0.00,,,0.00,WUHU216HW,2013-06-17 18:45:00,
2013-06-17 13:50:00,81.9,55.4,29.24,North,0,0.0,0.0,40,0.00,,,0.00,WUHU216HW,2013-06-17 18:50:00,
2013-06-17 13:55:00,81.9,55.4,29.24,North,0,0.0,0.0,40,0.00,,,0.00,WUHU216HW,2013-06-17 18:55:00,
2013-06-17 14:00:00,82.4,55.8,29.24,North,0,0.0,0.0,40,0.00,,,0.00,WUHU216HW,2013-06-17 19:00:00,
2013-06-17 14:05:00,82.8,56.2,29.24,North,0,0.0,0.0,40,0.00,,,0.00,WUHU216HW,2013-06-17 19:05:00,
2013-06-17 14:10:00,82.6,56.0,29.24,North,0,0.0,0.0,40,0.00,,,0.00,WUHU216HW,2013-06-17 19:10:00,
2013-06-17 14:15:00,82.6,55.2,29.24,North,0,0.0,0.0,39,0.00,,,0.00,WUHU216HW,2013-06-17 19:15:00,
2013-06-17 14:20:00,82.3,55.6,29.24,North,0,0.0,0.0,40,0.00,,,0.00,WUHU216HW,2013-06-17 19:20:00,
2013-06-17 14:25:00,82.1,55.4,29.23,North,0,0.0,0.0,40,0.00,,,0.00,WUHU216HW,2013-06-17 19:25:00,
2013-06-17 14:30:00,82.1,55.4,29.23,North,0,0.0,0.0,40,0.00,,,0.00,WUHU216HW,2013-06-17 19:30:00,
2013-06-17 14:35:00,82.6,56.0,29.23,North,0,0.0,0.0,40,0.00,,,0.00,WUHU216HW,2013-06-17 19:35:00,
2013-06-17 14:40:00,82.8,56.2,29.23,North,0,0.0,0.0,40,0.00,,,0.00,WUHU216HW,2013-06-17 19:40:00,
2013-06-17 14:45:00,83.2,57.1,29.23,North,0,0.0,0.0,41,0.00,,,0.00,WUHU216HW,2013-06-17 19:45:00,
2013-06-17 14:50:00,83.7,57.0,29.23,North,0,0.0,0.0,40,0.00,,,0.00,WUHU216HW,2013-06-17 19:50:00,
2013-06-17 14:55:00,84.2,57.4,29.23,North,0,0.0,0.0,40,0.00,,,0.00,WUHU216HW,2013-06-17 19:55:00,
2013-06-17 15:00:00,85.0,57.2,29.23,North,0,0.0,0.0,39,0.00,,,0.00,WUHU216HW,2013-06-17 20:00:00,
2013-06-17 15:05:00,85.0,57.2,29.23,North,0,0.0,0.0,39,0.00,,,0.00,WUHU216HW,2013-06-17 20:05:00,
2013-06-17 15:10:00,84.4,56.0,29.23,North,0,0.0,0.0,38,0.00,,,0.00,WUHU216HW,2013-06-17 20:10:00,
2013-06-17 15:15:00,83.7,56.2,29.23,North,0,0.0,0.0,39,0.00,,,0.00,WUHU216HW,2013-06-17 20:15:00,
2013-06-17 15:20:00,83.9,56.4,29.23,North,0,0.0,0.0,39,0.00,,,0.00,WUHU216HW,2013-06-17 20:20:00,
2013-06-17 15:25:00,83.7,54.5,29.23,North,0,0.0,0.0,37,0.00,,,0.00,WUHU216HW,2013-06-17 20:25:00,
2013-06-17 15:30:00,81.0,58.1,29.24,North,0,0.0,0.0,46,0.00,,,0.00,WUHU216HW,2013-06-17 20:30:00,
2013-06-17 15:35:00,78.8,58.1,29.24,North,0,0.0,0.0,49,0.00,,,0.00,WUHU216HW,2013-06-17 20:35:00,
2013-06-17 15:40:00,77.2,59.2,29.24,North,0,0.0,0.0,54,0.00,,,0.00,WUHU216HW,2013-06-17 20:40:00,
2013-06-17 15:45:00,76.0,59.1,29.23,North,0,0.0,0.0,56,0.00,,,0.00,WUHU216HW,2013-06-17 20:45:00,
2013-06-17 15:50:00,75.4,59.1,29.24,North,0,0.0,0.0,57,0.00,,,0.00,WUHU216HW,2013-06-17 20:50:00,
2013-06-17 15:55:00,75.2,59.9,29.24,North,0,0.0,0.0,59,0.00,,,0.00,WUHU216HW,2013-06-17 20:55:00,
2013-06-17 16:00:00,74.7,59.0,29.24,North,0,0.0,0.0,58,0.00,,,0.00,WUHU216HW,2013-06-17 21:00:00,
2013-06-17 16:05:00,74.5,58.8,29.24,North,0,0.0,0.0,58,0.00,,,0.00,WUHU216HW,2013-06-17 21:05:00,
2013-06-17 16:10:00,74.2,58.4,29.24,North,0,0.0,0.0,58,0.00,,,0.00,WUHU216HW,2013-06-17 21:10:00,
2013-06-17 16:15:00,73.8,58.1,29.24,North,0,0.0,0.0,58,0.00,,,0.00,WUHU216HW,2013-06-17 21:15:00,
2013-06-17 16:20:00,73.6,57.9,29.25,North,0,0.0,0.0,58,0.00,,,0.00,WUHU216HW,2013-06-17 21:20:00,
2013-06-17 16:25:00,73.4,58.1,29.25,North,0,0.0,0.0,59,0.00,,,0.00,WUHU216HW,2013-06-17 21:25:00,
2013-06-17 16:30:00,73.4,58.7,29.24,North,0,0.0,0.0,60,0.00,,,0.00,WUHU216HW,2013-06-17 21:30:00,
2013-06-17 16:35:00,73.3,59.0,29.25,North,0,0.0,0.0,61,0.00,,,0.00,WUHU216HW,2013-06-17 21:35:00,
2013-06-17 16:40:00,73.1,58.8,29.25,North,0,0.0,0.0,61,0.00,,,0.00,WUHU216HW,2013-06-17 21:40:00,
2013-06-17 16:44:00,73.4,59.6,29.25,North,0,0.0,0.0,62,0.00,,,0.00,WUHU216HW,2013-06-17 21:44:00,
2013-06-17 16:49:00,74.3,60.5,29.25,North,0,0.0,0.0,62,0.00,,,0.00,WUHU216HW,2013-06-17 21:49:00,
2013-06-17 16:54:00,75.2,61.4,29.25,North,0,0.0,0.0,62,0.00,,,0.00,WUHU216HW,2013-06-17 21:54:00,
2013-06-17 16:59:00,75.2,60.5,29.25,North,0,0.0,0.0,60,0.00,,,0.00,WUHU216HW,2013-06-17 21:59:00,
2013-06-17 17:04:00,75.2,60.5,29.25,North,0,0.0,0.0,60,0.00,,,0.00,WUHU216HW,2013-06-17 22:04:00,
2013-06-17 17:09:00,75.1,59.8,29.25,North,0,0.0,0.0,59,0.00,,,0.00,WUHU216HW,2013-06-17 22:09:00,
2013-06-17 17:14:00,75.1,59.3,29.25,North,0,0.0,0.0,58,0.00,,,0.00,WUHU216HW,2013-06-17 22:14:00,
2013-06-17 17:19:00,74.9,59.1,29.25,North,0,0.0,0.0,58,0.00,,,0.00,WUHU216HW,2013-06-17 22:19:00,
2013-06-17 17:24:00,75.1,59.8,29.25,North,0,0.0,0.0,59,0.00,,,0.00,WUHU216HW,2013-06-17 22:24:00,
2013-06-17 17:29:00,75.2,59.0,29.25,North,0,0.0,0.0,57,0.00,,,0.00,WUHU216HW,2013-06-17 22:29:00,
2013-06-17 17:34:00,75.1,58.8,29.25,North,0,0.0,0.0,57,0.00,,,0.00,WUHU216HW,2013-06-17 22:34:00,
2013-06-17 17:39:00,75.1,58.8,29.25,North,0,0.0,0.0,57,0.00,,,0.00,WUHU216HW,2013-06-17 22:39:00,
2013-06-17 17:44:00,75.4,59.1,29.24,North,0,0.0,0.0,57,0.00,,,0.00,WUHU216HW,2013-06-17 22:44:00,
2013-06-17 17:49:00,75.8,59.9,29.24,North,0,0.0,0.0,58,0.00,,,0.00,WUHU216HW,2013-06-17 22:49:00,
2013-06-17 17:54:00,75.6,58.8,29.25,North,0,0.0,0.0,56,0.00,,,0.00,WUHU216HW,2013-06-17 22:54:00,
2013-06-17 17:59:00,75.4,58.6,29.24,North,0,0.0,0.0,56,0.00,,,0.00,WUHU216HW,2013-06-17 22:59:00,
2013-06-17 18:04:00,75.2,58.5,29.25,North,0,0.0,0.0,56,0.00,,,0.00,WUHU216HW,2013-06-17 23:04:00,
2013-06-17 18:09:00,75.4,58.6,29.25,North,0,0.0,0.0,56,0.00,,,0.00,WUHU216HW,2013-06-17 23:09:00,
2013-06-17 18:14:00,75.4,58.6,29.25,North,0,0.0,0.0,56,0.00,,,0.00,WUHU216HW,2013-06-17 23:14:00,
2013-06-17 18:39:00,75.4,58.2,29.25,North,0,0.0,0.0,55,0.00,,,0.00,WUHU216HW,2013-06-17 23:39:00,
2013-06-17 18:44:00,75.4,57.6,29.25,North,0,0.0,0.0,54,0.00,,,0.00,WUHU216HW,2013-06-17 23:44:00,
2013-06-17 18:49:00,75.1,57.8,29.25,North,0,0.0,0.0,55,0.00,,,0.00,WUHU216HW,2013-06-17 23:49:00,
2013-06-17 18:54:00,74.9,57.6,29.25,North,0,0.0,0.0,55,0.00,,,0.00,WUHU216HW,2013-06-17 23:54:00,
2013-06-17 18:59:00,74.7,58.0,29.25,North,0,0.0,0.0,56,0.00,,,0.00,WUHU216HW,2013-06-17 23:59:00,
2013-06-17 19:04:00,74.9,58.2,29.25,North,0,0.0,0.0,56,0.00,,,0.00,WUHU216HW,2013-06-18 00:04:00,
2013-06-17 19:09:00,74.9,58.2,29.25,North,0,0.0,0.0,56,0.00,,,0.00,WUHU216HW,2013-06-18 00:09:00,
2013-06-17 19:14:00,74.9,58.2,29.25,North,0,0.0,0.0,56,0.00,,,0.00,WUHU216HW,2013-06-18 00:14:00,
2013-06-17 19:19:00,75.1,58.8,29.25,North,0,0.0,0.0,57,0.00,,,0.00,WUHU216HW,2013-06-18 00:19:00,
2013-06-17 19:24:00,75.2,59.0,29.25,North,0,0.0,0.0,57,0.00,,,0.00,WUHU216HW,2013-06-18 00:24:00,
2013-06-17 19:29:00,75.2,59.0,29.25,North,0,0.0,0.0,57,0.00,,,0.00,WUHU216HW,2013-06-18 00:29:00,
2013-06-17 19:34:00,75.2,59.0,29.25,North,0,0.0,0.0,57,0.00,,,0.00,WUHU216HW,2013-06-18 00:34:00,
2013-06-17 19:39:00,74.9,58.2,29.25,North,0,0.0,0.0,56,0.00,,,0.00,WUHU216HW,2013-06-18 00:39:00,
2013-06-17 19:44:00,74.3,58.1,29.25,North,0,0.0,0.0,57,0.00,,,0.00,WUHU216HW,2013-06-18 00:44:00,
2013-06-17 19:49:00,73.8,58.1,29.25,North,0,0.0,0.0,58,0.00,,,0.00,WUHU216HW,2013-06-18 00:49:00,
2013-06-17 19:54:00,73.4,57.7,29.25,North,0,0.0,0.0,58,0.00,,,0.00,WUHU216HW,2013-06-18 00:54:00,
2013-06-17 19:59:00,73.1,57.9,29.26,North,0,0.0,0.0,59,0.00,,,0.00,WUHU216HW,2013-06-18 00:59:00,
2013-06-17 20:04:00,72.7,57.5,29.26,North,0,0.0,0.0,59,0.00,,,0.00,WUHU216HW,2013-06-18 01:04:00,
2013-06-17 20:09:00,72.4,57.7,29.26,North,0,0.0,0.0,60,0.00,,,0.00,WUHU216HW,2013-06-18 01:09:00,
2013-06-17 20:14:00,72.0,57.8,29.26,North,0,0.0,0.0,61,0.00,,,0.00,WUHU216HW,2013-06-18 01:14:00,
2013-06-17 20:19:00,71.6,57.1,29.26,North,0,0.0,0.0,60,0.00,,,0.00,WUHU216HW,2013-06-18 01:19:00,
2013-06-17 20:24:00,71.3,57.2,29.26,North,0,0.0,0.0,61,0.00,,,0.00,WUHU216HW,2013-06-18 01:24:00,
2013-06-17 20:29:00,70.9,56.9,29.26,North,0,0.0,0.0,61,0.00,,,0.00,WUHU216HW,2013-06-18 01:29:00,
2013-06-17 20:34:00,70.6,57.0,29.26,North,0,0.0,0.0,62,0.00,,,0.00,WUHU216HW,2013-06-18 01:34:00,
2013-06-17 20:39:00,70.0,56.9,29.26,North,0,0.0,0.0,63,0.00,,,0.00,WUHU216HW,2013-06-18 01:39:00,
2013-06-17 20:44:00,69.7,56.5,29.27,North,0,0.0,0.0,63,0.00,,,0.00,WUHU216HW,2013-06-18 01:44:00,
2013-06-17 20:49:00,69.3,56.2,29.27,North,0,0.0,0.0,63,0.00,,,0.00,WUHU216HW,2013-06-18 01:49:00,
2013-06-17 20:54:00,68.9,56.3,29.27,North,0,0.0,0.0,64,0.00,,,0.00,WUHU216HW,2013-06-18 01:54:00,
2013-06-17 20:59:00,68.8,56.5,29.27,North,0,0.0,0.0,65,0.00,,,0.00,WUHU216HW,2013-06-18 01:59:00,
2013-06-17 21:04:00,68.4,55.7,29.28,North,0,0.0,0.0,64,0.00,,,0.00,WUHU216HW,2013-06-18 02:04:00,
2013-06-17 21:09:00,67.9,55.6,29.28,North,0,0.0,0.0,65,0.00,,,0.00,WUHU216HW,2013-06-18 02:09:00,
2013-06-17 21:14:00,67.5,55.3,29.28,North,0,0.0,0.0,65,0.00,,,0.00,WUHU216HW,2013-06-18 02:14:00,
2013-06-17 21:19:00,67.1,54.9,29.28,North,0,0.0,0.0,65,0.00,,,0.00,WUHU216HW,2013-06-18 02:19:00,
2013-06-17 21:24:00,66.8,55.0,29.29,North,0,0.0,0.0,66,0.00,,,0.00,WUHU216HW,2013-06-18 02:24:00,
2013-06-17 21:29:00,66.2,54.6,29.29,North,0,0.0,0.0,66,0.00,,,0.00,WUHU216HW,2013-06-18 02:29:00,
2013-06-17 21:34:00,65.5,53.8,29.30,North,0,0.0,0.0,66,0.00,,,0.00,WUHU216HW,2013-06-18 02:34:00,
2013-06-17 21:39:00,65.2,53.5,29.30,North,0,0.0,0.0,66,0.00,,,0.00,WUHU216HW,2013-06-18 02:39:00,
2013-06-17 21:44:00,64.8,53.2,29.30,North,0,0.0,0.0,66,0.00,,,0.00,WUHU216HW,2013-06-18 02:44:00,
2013-06-17 21:49:00,64.4,52.8,29.30,North,0,0.0,0.0,66,0.00,,,0.00,WUHU216HW,2013-06-18 02:49:00,
2013-06-17 21:54:00,64.1,52.9,29.30,North,0,0.0,0.0,67,0.00,,,0.00,WUHU216HW,2013-06-18 02:54:00,
2013-06-17 21:59:00,63.7,52.6,29.31,North,0,0.0,0.0,67,0.00,,,0.00,WUHU216HW,2013-06-18 02:59:00,
2013-06-17 22:04:00,63.5,52.8,29.31,North,0,0.0,0.0,68,0.00,,,0.00,WUHU216HW,2013-06-18 03:04:00,
2013-06-17 22:09:00,63.2,52.5,29.31,North,0,0.0,0.0,68,0.00,,,0.00,WUHU216HW,2013-06-18 03:09:00,
2013-06-17 22:14:00,62.8,52.1,29.31,North,0,0.0,0.0,68,0.00,,,0.00,WUHU216HW,2013-06-18 03:14:00,
2013-06-17 22:19:00,62.5,51.8,29.31,North,0,0.0,0.0,68,0.00,,,0.00,WUHU216HW,2013-06-18 03:19:00,
2013-06-17 22:24:00,62.1,51.4,29.32,North,0,0.0,0.0,68,0.00,,,0.00,WUHU216HW,2013-06-18 03:24:00,
2013-06-17 22:29:00,61.6,50.9,29.32,North,0,0.0,0.0,68,0.00,,,0.00,WUHU216HW,2013-06-18 03:29:00,
2013-06-17 22:34:00,61.2,50.6,29.32,North,0,0.0,0.0,68,0.00,,,0.00,WUHU216HW,2013-06-18 03:34:00,
2013-06-17 22:39:00,60.8,50.3,29.32,North,0,0.0,0.0,68,0.00,,,0.00,WUHU216HW,2013-06-18 03:39:00,
2013-06-17 22:44:00,60.7,50.1,29.32,North,0,0.0,0.0,68,0.00,,,0.00,WUHU216HW,2013-06-18 03:44:00,
2013-06-17 22:49:00,60.3,49.8,29.33,North,0,0.0,0.0,68,0.00,,,0.00,WUHU216HW,2013-06-18 03:49:00,
2013-06-17 22:54:00,60.1,49.6,29.33,North,0,0.0,0.0,68,0.00,,,0.00,WUHU216HW,2013-06-18 03:54:00,
2013-06-17 22:59:00,59.9,49.4,29.33,North,0,0.0,0.0,68,0.00,,,0.00,WUHU216HW,2013-06-18 03:59:00,
2013-06-17 23:01:00,59.9,49.8,29.33,North,0,0.0,0.0,69,0.00,,,0.00,WUHU216HW,2013-06-18 04:01:00,
2013-06-17 23:06:00,59.8,49.6,29.33,North,0,0.0,0.0,69,0.00,,,0.00,WUHU216HW,2013-06-18 04:06:00,
2013-06-17 23:11:00,59.6,49.4,29.33,North,0,0.0,0.0,69,0.00,,,0.00,WUHU216HW,2013-06-18 04:11:00,
2013-06-17 23:16:00,59.4,49.2,29.34,North,0,0.0,0.0,69,0.00,,,0.00,WUHU216HW,2013-06-18 04:16:00,
2013-06-17 23:21:00,59.2,49.1,29.34,North,0,0.0,0.0,69,0.00,,,0.00,WUHU216HW,2013-06-18 04:21:00,
2013-06-17 23:26:00,59.0,48.9,29.34,North,0,0.0,0.0,69,0.00,,,0.00,WUHU216HW,2013-06-18 04:26:00,
2013-06-17 23:31:00,58.9,48.7,29.34,North,0,0.0,0.0,69,0.00,,,0.00,WUHU216HW,2013-06-18 04:31:00,
2013-06-17 23:36:00,58.7,48.5,29.34,North,0,0.0,0.0,69,0.00,,,0.00,WUHU216HW,2013-06-18 04:36:00,
2013-06-17 23:41:00,58.7,49.0,29.34,North,0,0.0,0.0,70,0.00,,,0.00,WUHU216HW,2013-06-18 04:41:00,
2013-06-17 23:46:00,58.7,49.0,29.34,North,0,0.0,0.0,70,0.00,,,0.00,WUHU216HW,2013-06-18 04:46:00,
2013-06-17 23:51:00,58.5,48.8,29.34,North,0,0.0,0.0,70,0.00,,,0.00,WUHU216HW,2013-06-18 04:51:00,
2013-06-17 23:56:00,58.3,48.6,29.34,North,0,0.0,0.0,70,0.00,,,0.00,WUHU216HW,2013-06-18 04:56:00,